SCOUT A DEB

Satellite information

Favourite Embed

Satellite Type and Status

DEBRISIN ORBIT

Key statistics

Satellite SCOUT A DEB at a glance.

Uptime

21055

Days in orbit

Revolutions

≈ 13.9

Per day

Orbit

SSO

Sun Synchronous Orbit

Inclination

90.2

Latest

Satellite identification and parameters

Extended collection of information and parameters for SCOUT A DEB.

Object identification

Identified? True

Debris? True

Object name: SCOUT A DEB

International designator: 1968-012C

Object number (NORAD): 3213

Object ID (CCSDS): 3213

Country: UNITED STATES OF AMERICA (US)

Current information (Y/N): Y

RCS size: SMALL

Orbital parameters

Period: 103.665 minutes

Inclination: 90.2127 deg

SMA: 7309.973 km

Apoapsis: 969.378 km

Periapsis: 894.297 km

RAAN: 108.0903 deg

Eccentricy: 0.00513548

Argument of periapsis: 2.8011 deg

Mean anomaly: 69.2871 deg

Mean motion: 13.89086005 rev/day

Mean motion (dot): 0.00000585 rev/day2

B* drag term: 0.00046953445 1/REarth

Two-line elements (TLE)

Creation date: Oct. 23, 2025, 2:46 a.m.

Reference frame: TEME

Reference center: EARTH

Epoch: Oct. 22, 2025, 2:58 p.m. UTC

TLE line 0: 0 SCOUT A DEB

TLE line 1: 1 03213U 68012C 25295.62411703 .00000585 00000-0 46953-3 0 9991

TLE line 2: 2 03213 90.2127 108.0903 0051355 2.8011 69.2871 13.89086005577466

Live tracking on map

Real-time ground track for satellite SCOUT A DEB.

In-orbit conjunctions

A list of the most updated potential collisions computed for object SCOUT A DEB.

Target Orbit TCA Probability of collision Miss distance Type
COSMOS 887 LEO 2025-09-07 13:37:46 0.0001316778 116.0 (m) PAYLOAD

Associated space launch

The Transit-O series of satellites that closely followed the design of Transit 5C-1 were also called “Oscars” (Oscar is the phonetic alphabet for “O”, i. e., operational). They were also called NNS (Navy Navigation Satellite) or shortened NavSat.

SCOUT A DEB was lifted into orbit during the mission ‘Scout A | Transit-O 18’, on board a Scout A space rocket.

The launch took place on March 2, 1968, 3:55 a.m. from Space Launch Complex 5.

For more information about the launch, click the button.

Launch to space Scout A | Transit-O 18
Scout A | Transit-O 18

Agency: N/A

Status: Launch Successful

Launch date: March 2, 1968, 3:55 a.m. UTC

Rocket: Scout A

Launch pad: Space Launch Complex 5

Location: Vandenberg SFB, CA, USA

...

Latest news about this satellite

There are no fresh news available about this satellite. Check back as we update our databases every day.


Newsletter sign-up

Weekly statistics, charts and insights to help you stay on top of the space industry.